Latest Coastal Weather Observations for Flinders Island Airport

IDT60701

Issued at 1:55 am EST Saturday 26 July 2014 (issued every 10 minutes, with the page automatically refreshed every 10 minutes)

About coastal observations | Map of coastal stations | Coastal observations for TAS | Marine services | Other Formats
Station Details ID: 099005 Name: FLINDERS ISLAND AIRPORT Lat: -40.09 Lon: 148.00 Height: 9.0 m
Data from the previous 72 hours. | See also: Recent months at Flinders Island Airport
Date/Time
EST
Temp

°C
Wind Pressure Rain
since 9am
mm
Weather Cloud Vis
km
Sea
Height
m
Swell
Dir
 
Speed
knots
Gust
knots
hPa Trend Height
m
Period
s
Dir
26/01:30am 11.2 NW 5 7 1018.9 - 0.4 - Partly cloudy 10 - - - -
26/01:00am 11.1 NNE 5 8 1018.9 - 0.2 - Partly cloudy 10 - - - -
26/12:30am 10.0 ENE 6 7 1018.8 - 0.2 - Partly cloudy 10 - - - -
26/12:00am 10.2 ENE 5 6 1019.0 - 0.2 - Cloudy 10 - - - -
 
Date/Time
EST
Temp

°C
Wind Pressure Rain
since 9am
mm
Weather Cloud Vis
km
Sea
Height
m
Swell
Dir
 
Speed
knots
Gust
knots
hPa Trend Height
m
Period
s
Dir
25/11:30pm 10.5 ENE 1 5 1019.2 - 0.2 - Partly cloudy 10 - - - -
25/11:00pm 11.2 E 5 6 1019.3 - 0.2 - Partly cloudy 10 - - - -
25/10:30pm 11.8 ENE 5 7 1019.3 - 0.2 - Partly cloudy 10 - - - -
25/10:00pm 12.1 NNE 7 9 1019.3 - 0.0 - Partly cloudy 10 - - - -
25/09:30pm 10.6 NE 5 7 1019.0 - 0.0 - Partly cloudy 10 - - - -
25/09:00pm 10.4 ENE 6 6 1018.9 - 0.0 - Cloudy 10 - - - -
25/08:30pm 10.7 NE 6 7 1018.7 - 0.0 - Partly cloudy 10 - - - -
25/08:00pm 10.5 ENE 5 6 1018.5 - 0.0 - Partly cloudy 10 - - - -
25/07:30pm 10.8 NE 6 7 1018.3 - 0.0 - Partly cloudy 10 - - - -
25/07:00pm 10.6 ENE 5 6 1018.2 - 0.0 - Cloudy 10 - - - -
25/06:30pm 10.5 ENE 5 5 1018.0 - 0.0 - Partly cloudy 10 - - - -
25/06:00pm 10.9 NE 5 5 1017.7 - 0.0 - Cloudy 10 - - - -
25/05:30pm 10.4 NNE 4 6 1017.1 - 0.0 - Partly cloudy 10 - - - -
25/05:00pm 12.0 CALM 0 0 1016.9 - 0.0 - Partly cloudy 10 - - - -
25/04:30pm 14.0 W 2 3 1016.7 - 0.0 - - 10 - - - -
25/04:00pm 15.7 W 4 5 1016.7 - 0.0 - - 10 - - - -
25/03:30pm 15.6 W 5 6 1016.4 - 0.0 - - 10 - - - -
25/03:00pm 16.3 W 5 6 1016.3 - 0.0 - Partly cloudy 10 - - - -
25/02:30pm 15.9 WNW 7 9 1016.1 - 0.0 - Partly cloudy 10 - - - -
25/02:00pm 15.6 WNW 7 9 1016.2 - 0.0 - Partly cloudy 10 - - - -
25/01:30pm 15.9 WNW 8 10 1016.1 - 0.0 - Cloudy 10 - - - -
25/01:00pm 16.3 WNW 9 13 1016.2 - 0.0 - Partly cloudy 10 - - - -
25/12:30pm 16.0 WNW 10 14 1016.2 - 0.0 - Partly cloudy 10 - - - -
25/12:00pm 16.6 N 5 8 1016.6 - 0.0 - Mostly clear 10 - - - -
25/11:30am 16.5 N 7 9 1016.8 - 0.0 - - 10 - - - -
25/11:00am 16.3 N 9 14 1017.1 - 0.0 - Partly cloudy 10 - - - -
25/10:30am 15.5 ENE 7 11 1017.0 - 0.0 - Cloudy 10 - - - -
25/10:00am 14.9 NE 10 15 1017.2 - 0.0 - Partly cloudy 10 - - - -
25/09:30am 14.7 NE 13 16 1017.0 - 0.0 - Partly cloudy 10 - - - -
25/09:00am 14.5 NE 13 16 1016.8 - 0.0 - Mostly cloudy 10 - - - -
25/08:30am 14.7 WSW 3 5 1016.7 - 0.0 - Cloudy 10 - - - -
25/08:00am 13.3 E 5 6 1016.3 - 0.0 - Cloudy 10 - - - -
25/07:30am 13.4 ESE 7 10 1016.0 - 0.0 - Partly cloudy 10 - - - -
25/07:00am 10.8 E 6 8 1016.1 - 0.0 - Partly cloudy 10 - - - -
25/06:30am 10.2 E 2 6 1015.9 - 0.0 - Partly cloudy 10 - - - -
25/06:00am 9.0 E 3 5 1016.0 - 0.0 - Mostly cloudy 10 - - - -
25/05:30am 11.2 E 6 7 1015.7 - 0.0 - Partly cloudy 10 - - - -
25/05:00am 9.1 ENE 6 7 1015.7 - 0.0 - Partly cloudy 10 - - - -
25/04:30am 8.2 S 3 4 1015.7 - 0.0 - - 10 - - - -
25/04:00am 9.5 NNE 3 5 1015.7 - 0.0 - - 10 - - - -
25/03:30am 12.2 E 7 9 1015.6 - 0.0 - - 10 - - - -
25/03:00am 9.7 ESE 3 5 1016.0 - 0.0 - Cloudy 10 - - - -
25/02:30am 9.4 E 4 6 1016.0 - 0.0 - Partly cloudy 10 - - - -
25/02:00am 9.5 NE 4 5 1016.0 - 0.0 - Cloudy 10 - - - -
25/01:30am 11.1 NNE 6 7 1015.8 - 0.0 - Cloudy 10 - - - -
25/01:00am 9.9 NE 6 8 1015.9 - 0.0 - Cloudy 10 - - - -
25/12:30am 11.3 NNE 9 10 1016.1 - 0.0 - Cloudy 10 - - - -
25/12:00am 11.1 NE 10 11 1016.4 - 0.0 - Cloudy 10 - - - -
 
Date/Time
EST
Temp

°C
Wind Pressure Rain
since 9am
mm
Weather Cloud Vis
km
Sea
Height
m
Swell
Dir
 
Speed
knots
Gust
knots
hPa Trend Height
m
Period
s
Dir
24/11:30pm 10.0 SE 5 5 1016.5 - 0.0 - - 10 - - - -
24/11:00pm 10.1 NW 3 5 1016.9 - 0.0 - - 10 - - - -
24/10:30pm 10.1 CALM 0 0 1016.6 - 0.0 - - 10 - - - -
24/10:00pm 10.6 NE 5 7 1017.0 - 0.0 - - 10 - - - -
24/09:30pm 9.8 ENE 7 8 1016.9 - 0.0 - - 10 - - - -
24/09:00pm 9.9 ENE 7 9 1017.0 - 0.0 - Cloudy 10 - - - -
24/08:30pm 10.4 NE 4 5 1016.8 - 0.0 - - 10 - - - -
24/08:00pm 11.5 NE 8 9 1016.9 - 0.0 - - 10 - - - -
24/07:30pm 11.3 ENE 6 7 1016.7 - 0.0 - - 10 - - - -
24/07:00pm 10.7 CALM 0 0 1016.9 - 0.0 - - 10 - - - -
24/06:30pm 11.5 E 4 6 1016.6 - 0.0 - - 10 - - - -
24/06:00pm 11.6 SSE 2 5 1016.6 - 0.0 - Cloudy 10 - - - -
24/05:30pm 12.4 ESE 1 3 1016.3 - 0.0 - - 10 - - - -
24/05:00pm 13.3 NE 5 8 1016.1 - 0.0 - - 10 - - - -
24/04:30pm 14.0 E 4 6 1015.6 - 0.0 - - 10 - - - -
24/04:00pm 13.6 ENE 5 6 1015.8 - 0.0 - - 10 - - - -
24/03:30pm 14.0 NE 7 9 1015.7 - 0.0 - - 10 - - - -
24/03:00pm 14.8 NE 10 15 1015.9 - 0.0 - - 10 - - - -
24/02:30pm 15.5 NE 11 15 1015.8 - 0.0 - - 10 - - - -
24/02:00pm 16.3 NE 13 17 1016.0 - 0.0 - - 10 - - - -
24/01:30pm 16.4 NE 14 18 1016.0 - 0.0 - - 10 - - - -
24/01:00pm 16.5 NE 15 20 1016.3 - 0.0 - - 10 - - - -
24/12:30pm 16.3 ENE 13 18 1016.6 - 0.0 - Partly cloudy 10 - - - -
24/12:00pm 16.0 NE 15 19 1017.5 - 0.0 - Mostly clear 10 - - - -
24/11:38am 15.5 NE 12 17 1018.1 - 0.0 - Partly cloudy 10 - - - -
24/11:30am 15.8 NE 11 16 1018.2 - 0.0 - Partly cloudy 10 - - - -
24/11:08am 15.2 ENE 11 17 1018.5 - 0.0 - Partly cloudy 10 - - - -
24/11:00am 15.7 NE 11 18 1018.7 - 0.0 - Partly cloudy 10 - - - -
24/10:30am 14.6 NE 10 13 1019.2 - 0.0 - Partly cloudy 10 - - - -
24/10:00am 14.8 ENE 7 11 1019.2 - 0.0 - Cloudy 10 - - - -
24/09:30am 13.3 NE 4 6 1019.4 - 0.0 - Partly cloudy 10 - - - -
24/09:00am 10.9 E 4 7 1019.2 - 0.0 - Mostly cloudy 10 - - - -
24/08:30am 7.4 CALM 0 3 1019.0 - 0.0 - - - - - - -
24/08:00am 3.4 CALM 0 0 1019.0 - 0.0 - - 10 - - - -
24/07:30am 3.3 CALM 0 3 1019.0 - 0.0 - - 10 - - - -
24/07:00am 2.5 E 4 5 1018.8 - 0.0 - - 10 - - - -
24/06:30am 3.6 ENE 3 5 1018.8 - 0.0 - - 10 - - - -
24/06:00am 2.1 ENE 2 4 1018.8 - 0.0 - Mostly cloudy 10 - - - -
24/05:30am 2.2 CALM 0 0 1018.9 - 0.0 - - 10 - - - -
24/05:00am 2.8 ENE 5 6 1019.1 - 0.0 - - - - - - -
24/04:30am 1.2 ENE 5 6 1019.3 - 0.0 - - 10 - - - -
24/04:00am 2.2 E 3 5 1019.4 - 0.0 - - 10 - - - -
24/03:30am 1.6 NE 5 5 1019.4 - 0.0 - Partly cloudy 10 - - - -
24/03:00am 1.4 NE 4 6 1019.5 - 0.0 - Partly cloudy 10 - - - -
24/02:30am 2.0 ENE 4 4 1019.6 - 0.0 - - 10 - - - -
24/02:00am 1.8 ENE 5 6 1019.6 - 0.0 - - 10 - - - -
24/01:30am 1.5 NE 5 6 1019.8 - 0.0 - - 10 - - - -
24/01:00am 2.2 NE 5 6 1020.0 - 0.0 - - 10 - - - -
24/12:30am 2.3 ENE 5 6 1020.2 - 0.0 - - 10 - - - -
24/12:00am 1.7 NE 6 6 1020.7 - 0.0 - - 10 - - - -
 
Date/Time
EST
Temp

°C
Wind Pressure Rain
since 9am
mm
Weather Cloud Vis
km
Sea
Height
m
Swell
Dir
 
Speed
knots
Gust
knots
hPa Trend Height
m
Period
s
Dir
23/11:30pm 2.8 ENE 7 8 1021.0 - 0.0 - - 10 - - - -
23/11:00pm 2.6 NE 7 8 1021.2 - 0.0 - - 10 - - - -
23/10:30pm 3.4 NE 5 7 1021.5 - 0.0 - - 10 - - - -
23/10:00pm 2.8 ENE 7 8 1021.8 - 0.0 - - 10 - - - -
23/09:30pm 2.8 ENE 6 7 1021.9 - 0.0 - - 10 - - - -
23/09:00pm 2.7 ENE 7 7 1021.9 - 0.0 - - 10 - - - -
23/08:30pm 2.8 ENE 7 7 1021.9 - 0.0 - - 10 - - - -
23/08:00pm 2.6 ENE 6 7 1022.0 - 0.0 - - 10 - - - -
23/07:30pm 3.3 ENE 6 8 1021.9 - 0.0 - - 10 - - - -
23/07:00pm 4.6 NE 6 7 1021.8 - 0.0 - - 10 - - - -
23/06:30pm 5.7 NE 7 9 1021.8 - 0.0 - - 10 - - - -
23/06:00pm 5.0 NNE 4 6 1021.9 - 0.0 - - 10 - - - -
23/05:30pm 6.2 CALM 0 0 1021.7 - 0.0 - - 10 - - - -
23/05:00pm 8.9 CALM 0 0 1021.4 - 0.0 - - 10 - - - -
23/04:30pm 11.4 SSE 3 4 1021.4 - 0.0 - - 10 - - - -
23/04:00pm 12.0 SSW 5 6 1021.4 - 0.0 - - 10 - - - -
23/03:30pm 12.3 SSW 5 6 1021.4 - 0.0 - - 10 - - - -
23/03:00pm 12.3 SW 5 6 1021.5 - 0.0 - - 10 - - - -
23/02:30pm 12.3 SW 5 7 1021.6 - 0.0 - - 10 - - - -
23/02:00pm 12.8 S 7 8 1021.6 - 0.0 - Partly cloudy 10 - - - -
23/01:30pm 12.3 SSW 6 7 1021.9 - 0.0 - Partly cloudy 10 - - - -
23/01:00pm 12.4 SSW 6 7 1022.2 - 0.0 - Partly cloudy 10 - - - -
23/12:30pm 12.1 SSW 6 7 1022.7 - 0.0 - Partly cloudy 10 - - - -
23/12:00pm 11.9 SSW 5 6 1023.1 - 0.0 - Partly cloudy 10 - - - -
23/11:30am 11.5 SW 5 6 1023.8 - 0.0 - Partly cloudy 10 - - - -
23/11:00am 12.0 SSW 5 6 1024.4 - 0.0 - Partly cloudy 10 - - - -
23/10:30am 12.6 S 4 5 1024.5 - 0.0 - Partly cloudy 10 - - - -
23/10:00am 10.5 CALM 0 0 1024.7 - 0.0 - - 10 - - - -
23/09:30am 8.9 NE 3 4 1024.6 - 0.0 - - 10 - - - -
23/09:00am 6.3 ENE 4 5 1024.7 - 0.0 - - 10 - - - -
23/08:30am 4.2 ENE 6 7 1024.5 - 0.0 - - 10 - - - -
23/08:00am 2.7 ENE 7 8 1024.5 - 0.0 - - 10 - - - -
23/07:30am 1.5 ENE 7 7 1024.4 - 0.0 - - 10 - - - -
23/07:00am 1.5 ENE 7 8 1024.1 - 0.0 - - 10 - - - -
23/06:30am 2.0 ENE 7 8 1023.9 - 0.0 - - 10 - - - -
23/06:00am 2.2 ENE 7 7 1023.8 - 0.0 - - 10 - - - -
23/05:30am 2.5 ENE 6 7 1023.8 - 0.0 - - 10 - - - -
23/05:00am 3.9 NE 7 8 1023.8 - 0.0 - - 10 - - - -
23/04:30am 4.6 ENE 6 7 1023.9 - 0.0 - Partly cloudy 10 - - - -
23/04:00am 5.4 ENE 6 7 1024.1 - 0.0 - Cloudy 10 - - - -
23/03:30am 5.7 ENE 5 6 1024.3 - 0.0 - Cloudy 10 - - - -
23/03:00am 5.3 ENE 6 7 1024.2 - 0.0 - Mostly cloudy 10 - - - -
23/02:30am 5.3 ENE 5 5 1024.4 - 0.0 - Cloudy 10 - - - -
23/02:00am 4.3 ENE 6 7 1024.4 - 0.0 - Partly cloudy 10 - - - -

Other Formats:

Comma delimited format used in spreadsheet applications
http://www.bom.gov.au/fwo/IDT60701/IDT60701.94980.axf

JavaScript Object Notation format (JSON) in row-major order
http://www.bom.gov.au/fwo/IDT60701/IDT60701.94980.json